Flag Weather past 2 weeks in Meissen, Saxony, Germany

Now
36 °F

Clear.


Feels Like: 29 °F
Forecast: 31 / 39 °F
Wind: 8 mph from Southeast

Location: Dresden-Klotzsche

Current Time: Nov 26, 2014 at 9:35:11 PM

Latest Report: Nov 26, 2014 at 9:20 PM


Visibility: 10 mi

Pressure: 30.09 "Hg

Humidity: 81%

Dew point: 30 °F

Location of MeissenLocation

Historic Weather in Meissen — Graph

°F

Meissen temperature yesterday

Maximum temperature yesterday: 45 °F (at 1:20 PM)
Minimum temperature yesterday: 34 °F (at 11:50 PM)
Average temperature yesterday: 39 °F

Past Weeks' High & Low Weather Summary

 TemperatureHumidityPressure
High57 °F (Nov 12, 11:50 AM)100% (Nov 13, 1:50 AM)30.33 "Hg (Nov 13, 1:50 AM)
Low32 °F (Nov 26, 3:50 AM)67% (Nov 14, 11:20 AM)29.53 "Hg (Nov 16, 4:20 AM)
Average44 °F88%30.00 "Hg
* Reported Nov 11 8:20 PM — Nov 26 8:20 PM, Meissen, Weather by CustomWeather, © 2014

Note: Actual official high and low records may vary slightly from our data, if they occured in-between our weather recording intervals... More about our weather records

Advertising

Meissen weather history for previous 24 hours

 ConditionsComfort  
Time TempWeatherWind HumidityBarometerVisibility
8:20 PM
Nov 26
37 °FPassing clouds.12 mph75%30.09 "HgN/A
7:50 PM37 °FPassing clouds.10 mph75%30.09 "HgN/A
7:20 PM37 °FPassing clouds.12 mph75%30.09 "HgN/A
6:50 PM37 °FPassing clouds.10 mph75%30.09 "HgN/A
6:20 PM37 °FPassing clouds.12 mph75%30.12 "HgN/A
5:50 PM37 °FPassing clouds.13 mph75%30.12 "HgN/A
5:20 PM37 °FPassing clouds.13 mph75%30.12 "HgN/A
4:50 PM37 °FPassing clouds.12 mph75%30.15 "HgN/A
4:20 PM37 °FPassing clouds.9 mph75%30.15 "HgN/A
3:50 PM36 °FPartly sunny.10 mph81%30.15 "HgN/A
3:20 PM36 °FPartly sunny.13 mph81%30.15 "HgN/A
2:50 PM37 °FPartly sunny.13 mph75%30.15 "HgN/A
2:20 PM37 °FPartly sunny.13 mph75%30.15 "HgN/A
1:50 PM37 °FPartly sunny.15 mph75%30.15 "HgN/A
1:20 PM37 °FPassing clouds.15 mph81%30.15 "Hg6 mi
12:50 PM39 °FPassing clouds.17 mph75%30.18 "HgN/A
12:20 PM41 °FPassing clouds.15 mph70%30.18 "HgN/A
11:50 AM41 °FPassing clouds.15 mph76%30.18 "Hg6 mi
11:20 AM41 °FSunny.10 mph76%30.18 "Hg10 mi
10:20 AM39 °FSunny.10 mph75%30.21 "Hg10 mi
9:50 AM37 °FSunny.10 mph81%30.21 "Hg10 mi
9:20 AM36 °FSunny.10 mph87%30.21 "Hg10 mi
8:50 AM36 °FSunny.9 mph87%30.21 "Hg10 mi
8:20 AM34 °FSunny.10 mph87%30.21 "Hg10 mi
7:50 AM34 °FSunny.10 mph87%30.21 "Hg10 mi
7:20 AM34 °FClear.10 mph87%30.21 "Hg10 mi
6:50 AM34 °FClear.10 mph87%30.21 "Hg10 mi
6:20 AM32 °FClear.10 mph93%30.21 "Hg10 mi
5:50 AM34 °FClear.9 mph87%30.21 "Hg6 mi
5:20 AM32 °FClear.10 mph93%30.21 "Hg6 mi
4:20 AM32 °FClear.7 mph93%30.21 "Hg6 mi
3:50 AM32 °FClear.8 mph93%30.21 "Hg6 mi
3:20 AM34 °FClear.8 mph87%30.24 "Hg6 mi
2:50 AM34 °FClear.7 mph93%30.24 "Hg6 mi
2:20 AM34 °FClear.7 mph93%30.24 "Hg6 mi
1:50 AM34 °FClear.7 mph93%30.24 "Hg6 mi
1:20 AM34 °FClear.6 mph93%30.27 "Hg6 mi
12:50 AM34 °FClear.6 mph93%30.27 "Hg6 mi
12:20 AM34 °FClear.7 mph93%30.27 "Hg6 mi
11:50 PM
Nov 25
34 °FClear.6 mph93%30.27 "Hg6 mi
11:20 PM36 °FClear.5 mph87%30.27 "Hg10 mi
10:50 PM36 °FClear.5 mph93%30.30 "Hg10 mi
10:20 PM36 °FClear.6 mph93%30.30 "Hg10 mi
9:50 PM36 °FPassing clouds.7 mph93%30.30 "HgN/A
9:20 PM36 °FPassing clouds.3 mph93%30.30 "HgN/A
Weather by CustomWeather, © 2014

See weather overviewHow to use our weather pages